This is the latest recevied weather packets stored in our database for station/object HS5FXK-3. If no packets are shown the sender has not sent any weather packets the latest 10 day(s).
| Time | Temp. | Humidity | Pressure | Rain* | Wind** | Luminosity | Snow |
|---|---|---|---|---|---|---|---|
| 1778124782 | 36.67° C | 53% | 979 hPa | - | - | 0 W/m² | - |
| 1778124543 | 36.67° C | 53% | 979 hPa | - | - | 0 W/m² | - |
| 1778123631 | 35° C | 58% | 979 hPa | - | - | 0 W/m² | - |
| 1778122719 | 35° C | 59% | 979 hPa | - | - | 0 W/m² | - |
| 1778121806 | 33.89° C | 62% | 979 hPa | - | - | 0 W/m² | - |
| 1778121268 | 33.89° C | 63% | 979 hPa | - | - | 0 W/m² | - |
| 1778120356 | 33.33° C | 66% | 979 hPa | - | - | 0 W/m² | - |
| 1778119443 | 32.78° C | 70% | 979 hPa | - | - | 0 W/m² | - |
| 1778118531 | 31.67° C | 73% | 979 hPa | - | - | 0 W/m² | - |
| 1778117619 | 31.11° C | 79% | 979 hPa | - | - | 0 W/m² | - |
| 1778116706 | 30° C | 82% | 979 hPa | - | - | 0 W/m² | - |
| 1778115794 | 30° C | 90% | 979 hPa | - | - | 0 W/m² | - |
| 1778115158 | 29.44° C | 95% | 979 hPa | - | - | 0 W/m² | - |
| 1778114245 | 28.89° C | 99% | 979 hPa | - | - | 0 W/m² | - |
| 1778113332 | 28.33° C | 99% | 979 hPa | - | - | 0 W/m² | - |
| 1778112420 | 27.78° C | 99% | 979 hPa | - | - | 0 W/m² | - |
| 1778111508 | 27.22° C | 99% | 979 hPa | - | - | 0 W/m² | - |
| 1778110595 | 27.22° C | 99% | 979 hPa | - | - | 0 W/m² | - |
| 1778109683 | 27.22° C | 99% | 978 hPa | - | - | 0 W/m² | - |
| 1778108771 | 27.22° C | 99% | 978 hPa | - | - | 0 W/m² | - |
| 1778107859 | 27.22° C | 99% | 978 hPa | - | - | 0 W/m² | - |
| 1778106946 | 27.22° C | 99% | 978 hPa | - | - | 0 W/m² | - |
| 1778106034 | 27.22° C | 99% | 978 hPa | - | - | 0 W/m² | - |
| 1778105122 | 27.22° C | 99% | 978 hPa | - | - | 0 W/m² | - |
| 1778104210 | 27.22° C | 99% | 978 hPa | - | - | 0 W/m² | - |
* Rain since midnight (hover to see other rain measurements)
** Current wind speed in m/s (hover to see current wind gust speed)